Volver al catálogo

GNOMES-3

ActivoCienciaSSO
NORAD 52158·PAYLOAD·🇺🇸 United States

Lanzado Apr 1, 2022 desde Cape Canaveral Space Force Station

Loading…

Próximos Pases (próximas 24 horas)

TLE

ActualizadoSource: Space-Track

Época: Sep 14, 2026, 04:01 UTC

1 52158U 22033B   26257.16792418  .00001290  00000-0  15604-3 0  9992
2 52158  97.8166 331.8713 0011561  38.6076 321.5963 14.85349620240546

Sigue GNOMES-3 en tiempo real con AllMySat

Download on the App Store